Location: Cutler
(25.6150°N, 80.3110°W)
Time: 20:36:48
(UTC-05:00)

Cosmos 2360 Rocket - Visible Passes

Search period start: 20 February 2018 00:00
Search period end: 02 March 2018 00:00
Orbit: 833 x 846 km, 71.0° (Epoch: 19 February)

Date Brightness Start Highest point End Pass type
(mag) Time Alt. Az. Time Alt. Az. Time Alt. Az.
23 Feb 2.2 06:16:02 10° SSW 06:21:42 86° WNW 06:27:23 10° NNE visible
24 Feb 2.2 06:00:21 10° SSW 06:06:01 88° ESE 06:11:42 10° NNE visible
25 Feb 2.3 05:44:41 10° SSW 05:50:20 82° ESE 05:56:01 10° NNE visible
26 Feb 2.4 05:29:01 10° SSW 05:34:40 76° ESE 05:40:19 10° NNE visible
27 Feb 2.4 05:13:22 10° S 05:18:59 70° ESE 05:24:37 10° NNE visible
28 Feb 2.5 04:57:43 10° S 05:03:18 65° ESE 05:08:55 10° NNE visible
01 Mar 2.6 04:43:55 21° S 04:47:38 59° ESE 04:53:12 10° NNE visible
